Time,TemperatureF,DewpointF,PressureIn,WindDirection,WindDirectionDegrees,WindSpeedMPH,WindSpeedGustMPH,Humidity,HourlyPrecipIn,Conditions,Clouds,dailyrainin,SoftwareType,DateUTC
2013-01-12 00:03:00,41.0,39.0,30.09,WSW,248,1.0,1.0,92,0.00,,,0.44,,2013-01-12 05:03:00,
2013-01-12 00:12:00,41.0,39.0,30.09,WSW,248,1.0,1.0,92,0.00,,,0.44,,2013-01-12 05:12:00,
2013-01-12 00:22:00,41.0,39.0,30.09,North,0,0.0,0.0,92,0.00,,,0.44,,2013-01-12 05:22:00,
2013-01-12 00:32:00,41.0,39.0,30.09,NNW,344,0.0,0.0,92,0.00,,,0.44,,2013-01-12 05:32:00,
2013-01-12 00:42:00,41.0,39.0,30.09,NNW,344,0.0,0.0,92,0.00,,,0.44,,2013-01-12 05:42:00,
2013-01-12 00:53:00,42.0,40.0,30.09,NNW,329,0.0,0.0,92,0.00,,,0.44,,2013-01-12 05:53:00,
2013-01-12 01:02:00,42.0,40.0,30.10,NW,322,0.0,1.0,92,0.00,,,0.44,,2013-01-12 06:02:00,
2013-01-12 01:12:00,42.0,40.0,30.10,NW,322,0.0,1.0,92,0.00,,,0.44,,2013-01-12 06:12:00,
2013-01-12 01:22:00,42.0,40.0,30.09,WNW,288,0.0,0.0,92,0.00,,,0.44,,2013-01-12 06:22:00,
2013-01-12 01:33:00,42.0,40.0,30.10,West,280,0.0,1.0,92,0.00,,,0.44,,2013-01-12 06:33:00,
2013-01-12 01:42:00,42.0,40.0,30.10,West,280,0.0,1.0,92,0.00,,,0.44,,2013-01-12 06:42:00,
2013-01-12 01:53:00,42.0,40.0,30.09,SW,232,0.0,1.0,92,0.00,,,0.44,,2013-01-12 06:53:00,
2013-01-12 02:02:00,41.0,39.0,30.09,NE,47,0.0,1.0,92,0.00,,,0.44,,2013-01-12 07:02:00,
2013-01-12 02:12:00,41.0,39.0,30.10,SW,225,0.0,1.0,92,0.00,,,0.44,,2013-01-12 07:12:00,
2013-01-12 02:22:00,41.0,39.0,30.10,SW,225,0.0,1.0,92,0.00,,,0.44,,2013-01-12 07:22:00,
2013-01-12 02:32:00,41.0,39.0,30.11,WNW,290,0.0,1.0,92,0.00,,,0.44,,2013-01-12 07:32:00,
2013-01-12 02:42:00,41.0,39.0,30.11,WNW,290,0.0,1.0,92,0.00,,,0.44,,2013-01-12 07:42:00,
2013-01-12 02:53:00,42.0,40.0,30.11,WNW,282,0.0,1.0,92,0.00,,,0.44,,2013-01-12 07:53:00,
2013-01-12 03:02:00,42.0,40.0,30.12,West,270,1.0,1.0,92,0.00,,,0.44,,2013-01-12 08:02:00,
2013-01-12 03:12:00,42.0,40.0,30.12,West,270,1.0,1.0,92,0.00,,,0.44,,2013-01-12 08:12:00,
2013-01-12 03:22:00,42.0,40.0,30.12,West,267,1.0,2.0,92,0.00,,,0.44,,2013-01-12 08:22:00,
2013-01-12 03:32:00,41.0,39.0,30.12,West,276,1.0,2.0,92,0.00,,,0.44,,2013-01-12 08:32:00,
2013-01-12 03:42:00,41.0,39.0,30.12,West,276,1.0,2.0,92,0.00,,,0.44,,2013-01-12 08:42:00,
2013-01-12 03:53:00,41.0,39.0,30.12,West,278,1.0,2.0,92,0.00,,,0.44,,2013-01-12 08:53:00,
2013-01-12 04:02:00,41.0,39.0,30.11,WNW,297,1.0,2.0,92,0.00,,,0.44,,2013-01-12 09:02:00,
2013-01-12 04:12:00,41.0,39.0,30.11,WNW,297,1.0,2.0,92,0.00,,,0.44,,2013-01-12 09:12:00,
2013-01-12 04:22:00,41.0,39.0,30.11,WSW,253,0.0,2.0,92,0.00,,,0.44,,2013-01-12 09:22:00,
2013-01-12 04:32:00,41.0,39.0,30.12,NW,306,1.0,2.0,92,0.00,,,0.44,,2013-01-12 09:32:00,
2013-01-12 04:42:00,41.0,39.0,30.12,NW,306,1.0,2.0,92,0.00,,,0.44,,2013-01-12 09:42:00,
2013-01-12 04:53:00,41.0,39.0,30.11,West,271,0.0,1.0,92,0.00,,,0.44,,2013-01-12 09:53:00,
2013-01-12 05:02:00,41.0,39.0,30.12,West,277,1.0,1.0,93,0.00,,,0.44,,2013-01-12 10:02:00,
2013-01-12 05:12:00,41.0,39.0,30.12,West,277,1.0,1.0,93,0.00,,,0.44,,2013-01-12 10:12:00,
2013-01-12 05:22:00,41.0,39.0,30.11,South,171,0.0,0.0,93,0.00,,,0.44,,2013-01-12 10:22:00,
2013-01-12 05:32:00,41.0,39.0,30.12,West,276,0.0,0.0,93,0.00,,,0.44,,2013-01-12 10:32:00,
2013-01-12 05:42:00,41.0,39.0,30.12,West,276,0.0,0.0,93,0.00,,,0.44,,2013-01-12 10:42:00,
2013-01-12 05:52:00,41.0,39.0,30.12,WNW,284,0.0,1.0,93,0.00,,,0.44,,2013-01-12 10:52:00,
2013-01-12 06:02:00,41.0,39.0,30.12,SSW,210,0.0,1.0,93,0.00,,,0.44,,2013-01-12 11:02:00,
2013-01-12 06:12:00,41.0,39.0,30.13,North,7,0.0,0.0,93,0.00,,,0.44,,2013-01-12 11:12:00,
2013-01-12 06:22:00,41.0,39.0,30.13,North,7,0.0,0.0,93,0.00,,,0.44,,2013-01-12 11:22:00,
2013-01-12 06:32:00,41.0,39.0,30.13,NW,323,0.0,2.0,93,0.00,,,0.44,,2013-01-12 11:32:00,
2013-01-12 06:42:00,41.0,39.0,30.13,NW,323,0.0,2.0,93,0.00,,,0.44,,2013-01-12 11:42:00,
2013-01-12 06:53:00,41.0,39.0,30.14,West,278,1.0,2.0,93,0.00,,,0.44,,2013-01-12 11:53:00,
2013-01-12 07:03:00,41.0,39.0,30.14,WNW,291,0.0,1.0,93,0.00,,,0.44,,2013-01-12 12:03:00,
2013-01-12 07:12:00,41.0,39.0,30.14,WNW,291,0.0,1.0,93,0.00,,,0.44,,2013-01-12 12:12:00,
2013-01-12 07:22:00,41.0,39.0,30.14,WNW,299,0.0,0.0,93,0.00,,,0.44,,2013-01-12 12:22:00,
2013-01-12 07:33:00,41.0,39.0,30.14,West,265,1.0,1.0,93,0.00,,,0.44,,2013-01-12 12:33:00,
2013-01-12 07:42:00,41.0,39.0,30.14,West,265,1.0,1.0,93,0.00,,,0.44,,2013-01-12 12:42:00,
2013-01-12 07:53:00,41.0,39.0,30.16,NNW,345,0.0,1.0,93,0.00,,,0.44,,2013-01-12 12:53:00,
2013-01-12 08:02:00,41.0,39.0,30.16,NNW,340,0.0,0.0,93,0.00,,,0.44,,2013-01-12 13:02:00,
2013-01-12 08:12:00,41.0,39.0,30.16,NNW,340,0.0,0.0,93,0.00,,,0.44,,2013-01-12 13:12:00,
2013-01-12 08:23:00,41.0,39.0,30.16,North,349,0.0,1.0,93,0.00,,,0.44,,2013-01-12 13:23:00,
2013-01-12 08:33:00,41.0,39.0,30.16,NW,324,0.0,0.0,93,0.00,,,0.44,,2013-01-12 13:33:00,
2013-01-12 08:42:00,41.0,39.0,30.16,NW,324,0.0,0.0,93,0.00,,,0.44,,2013-01-12 13:42:00,
2013-01-12 08:53:00,41.0,39.0,30.16,NNW,347,0.0,1.0,93,0.00,,,0.44,,2013-01-12 13:53:00,
2013-01-12 09:02:00,41.0,39.0,30.17,WNW,301,1.0,3.0,93,0.00,,,0.44,,2013-01-12 14:02:00,
2013-01-12 09:12:00,41.0,39.0,30.17,WNW,301,1.0,3.0,93,0.00,,,0.44,,2013-01-12 14:12:00,
2013-01-12 09:22:00,42.0,40.0,30.17,NE,37,1.0,3.0,93,0.00,,,0.44,,2013-01-12 14:22:00,
2013-01-12 09:33:00,42.0,40.0,30.16,WNW,291,1.0,1.0,93,0.00,,,0.44,,2013-01-12 14:33:00,
2013-01-12 09:43:00,42.0,40.0,30.16,WNW,291,1.0,1.0,93,0.00,,,0.44,,2013-01-12 14:43:00,
2013-01-12 09:53:00,42.0,40.0,30.16,NE,56,0.0,3.0,93,0.00,,,0.44,,2013-01-12 14:53:00,
2013-01-12 10:03:00,42.0,40.0,30.16,NNW,328,1.0,2.0,93,0.00,,,0.44,,2013-01-12 15:03:00,
2013-01-12 10:12:00,42.0,40.0,30.16,North,350,1.0,2.0,93,0.00,,,0.44,,2013-01-12 15:12:00,
2013-01-12 10:22:00,42.0,40.0,30.16,North,350,1.0,2.0,93,0.00,,,0.44,,2013-01-12 15:22:00,
2013-01-12 10:33:00,42.0,40.0,30.17,North,3,0.0,1.0,93,0.00,,,0.44,,2013-01-12 15:33:00,
2013-01-12 10:43:00,42.0,40.0,30.17,North,3,0.0,1.0,93,0.00,,,0.44,,2013-01-12 15:43:00,
2013-01-12 10:53:00,42.0,40.0,30.17,North,3,0.0,1.0,93,0.00,,,0.44,,2013-01-12 15:53:00,
2013-01-12 11:03:00,42.0,40.0,30.17,North,3,0.0,1.0,93,0.00,,,0.44,,2013-01-12 16:03:00,
2013-01-12 11:33:00,44.0,42.0,30.15,NNE,30,1.0,3.0,93,0.00,,,0.44,,2013-01-12 16:33:00,
2013-01-12 11:43:00,45.0,43.0,30.14,NE,55,2.0,3.0,93,0.00,,,0.44,,2013-01-12 16:43:00,
2013-01-12 11:53:00,45.0,43.0,30.14,NE,55,2.0,3.0,93,0.00,,,0.44,,2013-01-12 16:53:00,
2013-01-12 12:02:00,45.0,43.0,30.14,NNW,340,1.0,3.0,93,0.00,,,0.44,,2013-01-12 17:02:00,
2013-01-12 12:12:00,45.0,43.0,30.14,NNW,340,1.0,3.0,93,0.00,,,0.44,,2013-01-12 17:12:00,
2013-01-12 12:23:00,46.0,44.0,30.13,ENE,75,1.0,2.0,93,0.00,,,0.44,,2013-01-12 17:23:00,
2013-01-12 12:33:00,46.0,44.0,30.12,ENE,66,1.0,2.0,93,0.00,,,0.44,,2013-01-12 17:33:00,
2013-01-12 12:43:00,46.0,44.0,30.12,ENE,66,1.0,2.0,93,0.00,,,0.44,,2013-01-12 17:43:00,
2013-01-12 12:53:00,47.0,45.0,30.12,NNW,332,1.0,2.0,92,0.00,,,0.44,,2013-01-12 17:53:00,
2013-01-12 13:03:00,49.0,46.0,30.12,ESE,106,1.0,2.0,89,0.00,,,0.44,,2013-01-12 18:03:00,
2013-01-12 13:12:00,49.0,46.0,30.12,ESE,106,1.0,2.0,89,0.00,,,0.44,,2013-01-12 18:12:00,
2013-01-12 13:23:00,52.0,46.0,30.12,ESE,123,1.0,2.0,80,0.00,,,0.44,,2013-01-12 18:23:00,
2013-01-12 13:33:00,55.0,47.0,30.12,South,173,0.0,1.0,74,0.00,,,0.44,,2013-01-12 18:33:00,
2013-01-12 13:42:00,55.0,47.0,30.12,South,173,0.0,1.0,74,0.00,,,0.44,,2013-01-12 18:42:00,
2013-01-12 13:53:00,55.0,46.0,30.12,ESE,123,0.0,1.0,71,0.00,,,0.44,,2013-01-12 18:53:00,
2013-01-12 14:03:00,54.0,46.0,30.12,NW,314,0.0,2.0,74,0.00,,,0.44,,2013-01-12 19:03:00,
2013-01-12 14:12:00,54.0,46.0,30.12,NW,314,0.0,2.0,74,0.00,,,0.44,,2013-01-12 19:12:00,
2013-01-12 14:23:00,56.0,46.0,30.12,West,279,1.0,2.0,70,0.00,,,0.44,,2013-01-12 19:23:00,
2013-01-12 14:33:00,56.0,46.0,30.12,SSW,213,0.0,2.0,69,0.00,,,0.44,,2013-01-12 19:33:00,
2013-01-12 14:43:00,56.0,46.0,30.12,SSW,213,0.0,2.0,69,0.00,,,0.44,,2013-01-12 19:43:00,
2013-01-12 14:53:00,55.0,45.0,30.12,SW,220,2.0,3.0,70,0.00,,,0.44,,2013-01-12 19:53:00,
2013-01-12 15:03:00,55.0,45.0,30.12,South,177,1.0,2.0,70,0.00,,,0.44,,2013-01-12 20:03:00,
2013-01-12 15:12:00,55.0,46.0,30.12,South,184,1.0,2.0,72,0.00,,,0.44,,2013-01-12 20:12:00,
2013-01-12 15:22:00,55.0,46.0,30.12,South,184,1.0,2.0,72,0.00,,,0.44,,2013-01-12 20:22:00,
2013-01-12 15:33:00,54.0,46.0,30.11,SSE,166,2.0,3.0,74,0.00,,,0.44,,2013-01-12 20:33:00,
2013-01-12 15:43:00,54.0,46.0,30.11,SSE,166,2.0,3.0,74,0.00,,,0.44,,2013-01-12 20:43:00,
2013-01-12 15:53:00,55.0,47.0,30.10,South,173,2.0,3.0,74,0.00,,,0.44,,2013-01-12 20:53:00,
2013-01-12 16:03:00,54.0,46.0,30.11,SSE,162,1.0,2.0,73,0.00,,,0.44,,2013-01-12 21:03:00,
2013-01-12 16:12:00,52.0,45.0,30.11,SE,135,1.0,2.0,76,0.00,,,0.44,,2013-01-12 21:12:00,
2013-01-12 16:22:00,52.0,45.0,30.11,SE,135,1.0,2.0,76,0.00,,,0.44,,2013-01-12 21:22:00,
2013-01-12 16:33:00,52.0,45.0,30.11,SE,142,0.0,0.0,78,0.00,,,0.44,,2013-01-12 21:33:00,
2013-01-12 16:43:00,52.0,45.0,30.11,SE,142,0.0,0.0,78,0.00,,,0.44,,2013-01-12 21:43:00,
2013-01-12 16:53:00,52.0,45.0,30.12,North,0,0.0,0.0,78,0.00,,,0.43,,2013-01-12 21:53:00,
2013-01-12 17:03:00,51.0,45.0,30.12,South,173,1.0,1.0,80,0.00,,,0.41,,2013-01-12 22:03:00,
2013-01-12 17:12:00,51.0,45.0,30.12,South,173,1.0,1.0,80,0.00,,,0.41,,2013-01-12 22:12:00,
2013-01-12 17:23:00,50.0,45.0,30.12,North,0,0.0,0.0,83,0.00,,,0.40,,2013-01-12 22:23:00,
2013-01-12 17:33:00,48.0,44.0,30.14,SSE,167,0.0,1.0,86,0.00,,,0.35,,2013-01-12 22:33:00,
2013-01-12 17:43:00,48.0,44.0,30.14,SSE,167,0.0,1.0,86,0.00,,,0.35,,2013-01-12 22:43:00,
2013-01-12 17:52:00,47.0,43.0,30.14,SSE,148,0.0,1.0,87,0.00,,,0.31,,2013-01-12 22:52:00,
2013-01-12 18:03:00,47.0,44.0,30.14,ENE,58,0.0,0.0,88,0.00,,,0.29,,2013-01-12 23:03:00,
2013-01-12 18:12:00,47.0,43.0,30.16,SE,135,1.0,1.0,87,0.00,,,0.28,,2013-01-12 23:12:00,
2013-01-12 18:22:00,47.0,43.0,30.16,SE,135,1.0,1.0,87,0.00,,,0.28,,2013-01-12 23:22:00,
2013-01-12 18:33:00,43.0,40.0,30.14,SSE,150,1.0,1.0,88,0.00,,,0.23,,2013-01-12 23:33:00,
2013-01-12 18:43:00,43.0,40.0,30.14,SSE,150,1.0,1.0,88,0.00,,,0.23,,2013-01-12 23:43:00,
2013-01-12 18:53:00,43.0,40.0,30.14,SSE,167,0.0,1.0,90,0.00,,,0.19,,2013-01-12 23:53:00,
2013-01-12 19:03:00,45.0,43.0,30.16,SE,139,2.0,2.0,91,0.00,,,0.15,,2013-01-13 00:03:00,
2013-01-12 19:12:00,45.0,43.0,30.16,SE,139,2.0,2.0,91,0.00,,,0.15,,2013-01-13 00:12:00,
2013-01-12 19:23:00,44.0,41.0,30.16,SE,130,1.0,2.0,90,0.00,,,0.11,,2013-01-13 00:23:00,
2013-01-12 19:33:00,45.0,43.0,30.16,North,0,0.0,0.0,91,0.00,,,0.09,,2013-01-13 00:33:00,
2013-01-12 19:43:00,45.0,43.0,30.16,North,0,0.0,0.0,91,0.00,,,0.09,,2013-01-13 00:43:00,
2013-01-12 19:52:00,45.0,43.0,30.16,NE,37,1.0,1.0,91,0.00,,,0.07,,2013-01-13 00:52:00,
2013-01-12 20:03:00,44.0,42.0,30.16,NE,41,1.0,1.0,91,0.00,,,0.05,,2013-01-13 01:03:00,
2013-01-12 20:12:00,44.0,42.0,30.16,NE,41,1.0,1.0,91,0.00,,,0.05,,2013-01-13 01:12:00,
2013-01-12 20:23:00,42.0,40.0,30.16,SE,128,1.0,1.0,91,0.00,,,0.02,,2013-01-13 01:23:00,
2013-01-12 20:33:00,42.0,40.0,30.15,SE,129,1.0,1.0,91,0.00,,,0.01,,2013-01-13 01:33:00,
2013-01-12 20:43:00,42.0,40.0,30.15,SE,129,1.0,1.0,91,0.00,,,0.01,,2013-01-13 01:43:00,
2013-01-12 20:53:00,43.0,41.0,30.14,SE,130,0.0,1.0,91,0.00,,,0.01,,2013-01-13 01:53:00,
2013-01-12 21:02:00,43.0,41.0,30.15,North,0,0.0,0.0,91,0.00,,,0.01,,2013-01-13 02:02:00,
2013-01-12 21:12:00,43.0,41.0,30.15,North,0,0.0,0.0,91,0.00,,,0.01,,2013-01-13 02:12:00,
2013-01-12 21:22:00,44.0,42.0,30.14,SE,128,0.0,1.0,92,0.00,,,0.01,,2013-01-13 02:22:00,
2013-01-12 21:33:00,44.0,42.0,30.14,ESE,121,1.0,2.0,92,0.00,,,0.01,,2013-01-13 02:33:00,
2013-01-12 21:43:00,44.0,42.0,30.14,ESE,121,1.0,2.0,92,0.00,,,0.01,,2013-01-13 02:43:00,
2013-01-12 21:53:00,43.0,41.0,30.13,SSE,155,0.0,1.0,91,0.00,,,0.01,,2013-01-13 02:53:00,
2013-01-12 22:02:00,43.0,41.0,30.13,SE,143,1.0,1.0,92,0.00,,,0.01,,2013-01-13 03:02:00,
2013-01-12 22:12:00,43.0,41.0,30.13,SE,143,1.0,1.0,92,0.00,,,0.01,,2013-01-13 03:12:00,
2013-01-12 22:22:00,45.0,43.0,30.13,South,172,1.0,1.0,92,0.00,,,0.00,,2013-01-13 03:22:00,
2013-01-12 22:33:00,44.0,42.0,30.13,SSE,151,1.0,1.0,92,0.00,,,0.00,,2013-01-13 03:33:00,
2013-01-12 22:43:00,44.0,42.0,30.13,SSE,151,1.0,1.0,92,0.00,,,0.00,,2013-01-13 03:43:00,
2013-01-12 22:53:00,44.0,42.0,30.13,SE,146,0.0,1.0,92,0.00,,,0.00,,2013-01-13 03:53:00,
2013-01-12 23:02:00,44.0,42.0,30.13,SSE,152,0.0,1.0,92,0.00,,,0.00,,2013-01-13 04:02:00,
2013-01-12 23:12:00,44.0,42.0,30.13,SSE,152,0.0,1.0,92,0.00,,,0.00,,2013-01-13 04:12:00,
2013-01-12 23:22:00,42.0,40.0,30.14,SE,134,0.0,1.0,92,0.00,,,0.00,,2013-01-13 04:22:00,
2013-01-12 23:33:00,44.0,42.0,30.13,ESE,122,1.0,2.0,92,0.00,,,0.00,,2013-01-13 04:33:00,
2013-01-12 23:42:00,44.0,42.0,30.13,ESE,122,1.0,2.0,92,0.00,,,0.00,,2013-01-13 04:42:00,
2013-01-12 23:53:00,41.0,39.0,30.14,NW,310,0.0,1.0,92,0.00,,,0.00,,2013-01-13 04:53:00,